Theta_e
332 331 332 333 333 332 332 332 332 331 330 331 332 332 335 332 334 334 337 336 341 340 339 338 339 339 340 340 340 340 339 340 339
331 331 331 331 331 331 331 332 331 331 329 330 331 333 337 333 330 329 331 333 341 342 340 341 340 340 339 338 338 337 337 338 339
330 330 331 331 331 331 332 332 331 330 328 329 331 334 335 331 328 328 330 336 338 340 339 339 338 338 337 337 336 335 333 334 336
329 329 329 329 329 330 332 332 331 329 328 330 332 334 333 328 327 327 325 334 335 338 338 337 336 334 333 332 332 332 331 331 331
328 329 328 327 327 328 331 331 330 328 328 328 329 329 331 323 323 325 325 330 331 332 335 335 334 332 330 329 329 329 328 328 328
320 326 327 325 324 324 326 329 328 327 326 326 326 327 321 321 321 323 331 328 329 328 329 333 331 329 327 327 327 327 327 327 326
317 320 325 323 323 322 321 325 327 324 315 315 322 315 318 319 319 321 330 328 328 328 327 328 326 327 326 326 325 325 325 325 325
308 309 310 310 317 311 313 314 312 312 314 313 312 314 316 316 314 320 327 326 327 327 327 326 326 326 325 324 323 323 323 324 324
307 307 307 307 308 308 309 309 309 313 313 312 312 312 312 312 310 316 325 325 326 326 326 326 325 325 324 323 321 321 321 322 322
306 306 306 306 307 308 310 309 310 312 313 313 312 311 310 309 310 312 322 324 323 323 324 325 324 324 323 322 321 320 320 320 320
306 306 306 305 306 308 310 310 310 311 312 313 313 311 310 310 308 310 313 321 321 321 322 322 322 323 323 322 320 320 320 320 320
306 305 305 304 305 308 310 311 311 311 313 312 312 311 310 309 307 308 309 312 319 317 316 317 318 319 321 322 321 320 319 319 319
305 305 305 305 305 306 309 310 310 310 311 310 310 310 310 308 307 306 306 307 308 310 312 314 316 317 319 319 318 317 317 317 317
304 304 305 305 304 304 306 306 308 308 309 310 310 309 308 308 309 305 303 304 305 303 311 311 312 312 314 315 316 316 315 315 316
303 303 304 305 304 303 303 302 304 307 308 311 310 309 309 308 308 305 304 304 304 303 303 303 306 310 310 310 312 314 314 314 314
303 302 302 304 303 303 303 302 302 302 305 306 306 308 309 309 310 306 301 301 302 301 302 301 301 302 308 306 309 309 309 310 311
304 302 302 302 302 301 301 301 300 299 300 300 301 299 303 306 307 306 303 300 301 301 301 300 300 299 299 300 304 304 305 306 307
305 303 302 301 302 301 300 300 300 298 299 299 298 295 294 298 301 303 302 300 300 299 300 300 299 297 295 298 297 300 301 304 306
305 304 302 302 302 301 300 302 300 300 297 298 300 297 296 294 293 300 301 301 300 297 298 294 295 293 293 298 299 298 299 302 304
304 303 302 301 302 300 299 299 298 298 298 297 296 295 295 294 293 291 295 298 298 296 294 291 291 291 292 291 293 297 298 301 302
Wind_Speed
14 14 14 15 15 15 15 15 15 14 12 9 8 10 12 11 11 9 12 8 18 16 16 14 14 16 17 18 19 20 19 18 17
14 14 14 14 14 14 14 15 15 14 12 8 8 13 14 12 10 9 10 11 19 19 17 19 20 19 20 20 20 19 19 20 19
13 14 14 14 14 14 15 15 15 13 10 8 10 10 13 12 10 10 8 13 17 18 18 20 20 20 19 19 19 17 17 18 19
13 13 13 13 14 14 15 15 14 12 10 7 7 9 14 12 9 10 5 14 13 18 18 18 19 18 17 16 16 16 17 16 16
13 11 12 13 13 13 13 14 13 11 8 6 9 9 8 9 9 5 5 14 13 13 17 17 17 17 16 16 16 16 16 16 15
8 10 10 12 12 12 12 12 11 9 5 3 5 9 7 9 6 4 12 12 13 13 12 16 17 16 16 16 17 17 16 16 16
7 7 8 11 11 10 10 10 10 7 3 1 5 3 10 7 7 4 12 12 14 13 13 13 13 16 16 17 16 16 16 16 16
4 3 3 3 6 3 5 4 2 5 3 3 5 6 8 6 4 7 11 12 13 13 13 13 14 15 16 16 16 16 16 16 16
5 4 5 4 4 4 4 3 3 3 5 6 5 6 7 6 3 6 10 11 13 13 13 13 13 14 15 14 15 15 15 15 16
4 3 3 3 3 3 3 4 3 4 6 5 6 6 7 9 5 3 12 11 13 13 13 13 13 13 13 13 14 14 14 15 14
4 4 4 3 3 2 3 4 4 3 5 5 6 6 6 8 7 4 5 12 12 13 13 13 13 12 12 13 13 13 14 14 14
5 4 3 3 3 4 4 3 4 4 4 5 5 5 6 6 7 5 4 6 11 12 12 12 11 11 12 12 12 13 13 13 13
5 4 4 3 3 3 3 3 3 3 4 3 3 4 4 6 6 5 4 4 4 8 11 12 12 12 12 13 13 13 13 13 12
5 4 4 4 3 3 3 2 3 3 3 4 3 4 4 4 5 6 6 5 4 3 7 10 10 11 11 12 13 13 14 13 13
5 4 4 4 3 3 3 3 3 3 3 4 4 3 3 3 4 6 5 4 5 4 4 3 3 8 9 12 13 14 15 15 15
5 3 4 3 4 3 4 2 4 4 2 4 3 2 2 3 3 4 5 4 4 4 3 3 2 3 9 9 12 14 15 16 16
5 5 3 4 4 4 4 4 2 2 2 3 3 3 2 0 2 3 4 5 3 3 3 3 3 3 3 6 10 13 15 17 17
3 4 4 4 4 4 2 3 4 3 2 3 3 1 3 3 1 2 3 5 2 2 2 2 2 4 4 6 7 11 15 18 19
4 5 4 3 3 5 3 2 3 3 4 2 3 3 3 2 1 1 2 4 3 3 2 3 4 5 4 5 7 10 14 18 18
6 5 6 4 4 3 5 3 4 2 4 2 2 2 2 3 3 1 1 1 1 2 2 1 2 3 4 3 4 10 15 18 17
Wind_Direction
101 100 101 100 98 98 99 99 95 90 86 79 54 27 352 78 69 60 65 65 66 74 77 74 67 68 65 64 62 60 55 51 52
103 100 103 101 100 99 101 101 96 89 84 78 45 25 55 78 73 58 56 56 62 68 68 72 71 69 69 67 59 56 50 49 53
102 100 98 98 96 95 100 101 95 88 82 64 44 26 71 73 73 67 53 53 62 68 69 71 64 59 57 58 54 51 51 45 39
104 99 100 100 97 96 99 99 92 86 79 65 40 29 84 79 70 63 51 61 64 66 73 73 69 60 55 52 53 50 49 46 41
104 88 101 102 100 98 99 100 94 84 65 27 6 4 71 88 73 68 63 69 66 68 62 67 68 58 52 51 51 49 47 45 42
73 76 92 103 103 104 104 107 107 100 73 8 342 345 80 78 61 44 78 74 72 73 70 64 64 58 57 52 50 49 46 44 42
103 102 103 111 111 114 122 131 143 136 144 290 337 65 78 72 64 22 59 73 76 72 72 74 66 66 60 55 51 48 47 45 43
135 139 133 141 144 140 148 153 193 208 153 85 57 70 85 82 62 31 55 69 76 75 74 72 72 68 64 58 53 50 46 43 40
162 159 166 175 172 164 170 126 79 98 102 98 93 83 99 98 79 35 44 75 78 77 76 75 72 71 65 59 55 52 47 42 37
116 152 120 86 95 111 106 119 113 86 89 90 90 82 96 106 96 54 51 67 75 75 72 68 64 64 66 62 56 50 45 41 38
115 103 99 102 84 90 113 116 112 106 103 89 87 85 82 111 119 101 65 66 71 74 70 64 59 57 60 60 54 47 40 36 33
139 129 121 123 91 72 67 86 96 92 94 102 100 101 106 98 119 130 126 96 78 72 66 62 58 52 51 48 44 39 33 26 21
121 123 121 132 132 132 118 117 109 124 118 111 104 101 98 108 110 101 111 131 106 86 80 67 59 58 52 42 35 27 22 15 9
132 120 135 145 131 117 135 93 125 125 120 130 121 121 111 132 113 105 88 66 110 110 101 83 72 55 46 33 26 19 13 8 3
111 119 153 130 111 113 106 114 72 130 147 120 104 112 128 127 130 130 115 110 90 89 90 97 82 64 48 31 24 16 10 6 3
128 129 132 132 129 161 137 111 98 40 72 83 47 35 123 110 111 130 126 118 108 103 92 90 60 26 60 34 32 18 7 357 351
139 145 171 134 119 119 125 130 108 60 58 162 154 157 322 45 173 119 138 145 141 130 117 111 96 69 80 47 46 19 2 351 344
126 141 137 134 136 143 153 137 131 141 5 74 148 118 188 132 257 179 154 155 176 164 151 63 109 100 76 71 47 17 358 344 337
107 111 106 95 96 112 122 104 124 117 144 54 61 73 128 151 80 318 188 165 196 172 98 60 37 79 60 80 43 12 349 337 332
137 129 119 110 96 96 105 83 76 63 123 126 127 83 61 75 119 152 310 343 7 91 91 56 86 85 89 64 26 357 338 331 328